Regional Weather Roundup
Issued by NWS

Home | Current Version | Previous Version | Graphics & Text | Print | Product List | Glossary Off
Versions: 1 2 3 4 5 6 7 8 9 10 11 12 13 14 15 16 17 18 19 20 21 22 23 24 25 26 27 28 29 30 31 32 33 34 35 36 37 38 39 40 41 42 43 44 45 46 47 48 49 50

000
ASUS45 KSLC 051010
RWRUT

UTAH REGIONAL WEATHER ROUNDUP
NATIONAL WEATHER SERVICE SALT LAKE CITY UT
400 AM MDT SAT SEP 05 2015

UTZ001>011-023>025-051100-

NORTHERN UTAH

CITY           SKY/WX    TMP DP  RH WIND       PRES   REMARKS
BRIGHAM CITY     N/A     75  36  24 S14       29.79R
HILL AFB         N/A     72  43  35 S21G29    29.83R
LOGAN          MOCLDY    72  42  34 S18       29.78R THUNDER
OGDEN            N/A     73  43  33 S20G31    29.80R
PROVO AIRPORT  MOCLDY    64  39  39 SE8       29.90R
SALT LAKE CITY MOCLDY    74  42  31 S20G28    29.82R
VERNAL         PTCLDY    54  51  90 W5        30.01R
WENDOVER         N/A     66  25  20 NW10      29.81R
HEBER CITY     MOCLDY    68  36  30 S9G26     29.94R
WEST JORDAN    CLEAR     70  45  40 SE15      29.86S

$$

UTZ012>022-026-027-051100-

SOUTHERN/CENTRAL UTAH

CITY           SKY/WX    TMP DP  RH WIND       PRES   REMARKS
BLANDING         N/A     57  55  92 NE6       30.19S
BRYCE CANYON   MOCLDY    57  43  59 S9        30.16S
CEDAR CITY       N/A     65  38  36 S12G22    29.99R
DELTA            N/A     65  41  41 S12       29.91R
HANKSVILLE       N/A     68  50  52 S8        29.98R
MILFORD          N/A     64  44  48 S20       29.92S
MOAB/CYNLANDS  PTCLDY    67  52  58 VRB5      29.98R
PRICE            N/A     58  46  64 E8        30.03R
ST GEORGE        N/A     73  41  31 SE9       29.88R
KANAB            N/A     57  52  82 CALM      30.07R

$$

REGIONAL REPORTS     COLORADO/ARIZONA

CITY           SKY/WX    TMP DP  RH WIND       PRES   REMARKS
CRAIG, CO      MOCLDY    50  45  83 CALM      30.09R
GRAND JUNCTION CLOUDY    58  53  84 E17       30.06R
RIFLE          LGT RAIN  56  53  90 E7        30.12R
MONTROSE       CLOUDY    55  52  89 CALM      30.16F
CORTEZ         MOCLDY    56  54  93 NE5       30.13S
PAGE, AZ         N/A     71  50  47 S8        29.98R
GRAND CANYON     N/A     55  51  86 SW5       30.17R
KINGMAN          N/A     69  55  60 SE9       29.96R
FLAGSTAFF        N/A     54  54 100 SW7       30.20F

$$

REGIONAL REPORTS    NEVADA/IDAHO/WYOMING

CITY           SKY/WX    TMP DP  RH WIND       PRES   REMARKS
LAS VEGAS, NV    N/A     77  33  20 S3        29.78R
ELY              N/A     62  19  19 SE22G32   29.94R
ELKO             N/A     49  31  49 SW8       29.93R
POCATELLO, ID  CLEAR     51  36  56 SW18      29.90R
BURLEY           N/A     49  38  65 W10       29.91R
EVANSTON, WY   CLEAR     60  36  40 S18G31    29.99S
ROCK SPRINGS   CLOUDY    55  46  71 S9        30.03S
KEMMERER       PTCLDY    54  34  47 SE7       30.02S

$$


USA.gov is the U.S. government's official web portal to all federal, state and local government web resources and services.